DW1024 Weather Reports


time (UTC)temp
F
wind
direction
speed
knots
gust
knots
rain 1hr
in
rain 24hr
in
rain mn
in
humidity
%
barometer
mb
20260505230405 53 230 0.9 3.5 0.00 0.19 0.00 92 1010.3
20260505224904 54 213 1.7 6.1 0.00 0.19 0.00 92 1010.3
20260505220357 55 283 1.7 6.1 0.04 0.19 0.00 91 1010.6
20260505214857 55 242 0.9 4.3 0.08 0.15 0.19 91 1010.5
20260505213400 55 306 1.7 6.1 0.12 0.15 0.19 90 1010.7
20260505211858 55 295 2.6 7.8 0.11 0.15 0.17 89 1010.6
20260505210359 56 195 0.9 4.3 0.10 0.15 0.15 88 1010.5
20260505204859 56 196 1.7 4.3 0.06 0.05 0.11 87 1010.3
20260505201858 57 219 1.7 4.3 0.04 0.05 0.06 84 1009.7
20260505200350 58 236 0.9 4.3 0.03 0.05 0.05 82 1009.5
20260505193353 60 168 0.0 2.6 0.01 0.02 0.03 76 1008.5
20260505191847 60 269 0.0 1.7 0.00 0.02 0.02 74 1008.3
20260505190349 61 269 0.0 1.7 0.00 0.02 0.02 70 1008.0
20260505184850 61 269 0.0 2.6 0.00 0.02 0.02 68 1007.7
20260505181850 61 24 1.7 5.2 0.00 0.02 0.02 65 1007.6
20260505180346 62 283 1.7 7.0 0.00 0.02 0.02 67 1007.5
20260505173349 63 198 1.7 5.2 0.00 0.02 0.02 66 1007.2
20260505170344 64 74 1.7 4.3 0.00 0.02 0.02 69 1007.0
20260505164841 65 176 1.7 6.1 0.00 0.02 0.02 68 1007.0
20260505161841 64 73 0.9 2.6 0.00 0.02 0.02 71 1007.1
20260505160342 62 57 1.7 4.3 0.00 0.02 0.02 78 1007.1
20260505153341 61 51 1.7 5.2 0.02 0.01 0.02 82 1007.3
20260505151842 62 341 0.0 4.3 0.02 0.01 0.02 82 1007.6
20260505150342 63 264 0.9 2.6 0.02 0.01 0.02 75 1007.6
20260505140341 71 271 1.7 7.8 0.00 0.00 0.00 46 1006.8
20260505124835 75 220 1.7 5.2 0.00 0.00 0.00 43 1006.7
20260505123338 76 280 0.9 3.5 0.00 0.00 0.00 40 1006.8
20260505121837 75 0 0.9 3.5 0.00 0.00 0.00 40 1006.9
20260505114835 76 88 1.7 7.8 0.00 0.00 0.00 40 1006.9
20260505113336 78 282 0.9 6.1 0.00 0.00 0.00 38 1007.0
20260505111835 78 260 1.7 3.5 0.00 0.00 0.00 35 1007.1
20260505110337 77 53 1.7 5.2 0.00 0.00 0.00 37 1007.3
20260505101835 74 69 0.9 5.2 0.00 0.00 0.00 42 1008.0
20260505093336 73 271 0.9 3.5 0.00 0.00 0.00 47 1008.6
20260505091835 73 186 0.9 3.5 0.00 0.00 0.00 46 1008.8
20260505090336 73 245 1.7 4.3 0.00 0.00 0.00 46 1008.8
20260505084833 72 36 1.7 4.3 0.00 0.00 0.00 49 1009.0
20260505083334 70 55 0.9 3.5 0.00 0.00 0.00 56 1009.2
20260505081833 70 294 0.9 2.6 0.00 0.00 0.00 60 1009.3
20260505080335 67 199 0.9 2.6 0.00 0.00 0.00 63 1009.6
20260505074835 66 227 0.9 3.5 0.00 0.00 0.00 67 1009.6
20260505073334 64 129 0.9 3.5 0.00 0.00 0.00 69 1009.7
20260505071834 63 250 0.9 3.5 0.00 0.00 0.00 71 1009.8
20260505070343 62 256 0.9 2.6 0.00 0.00 0.00 74 1009.9
20260505063449 58 295 0.9 1.7 0.00 0.00 0.00 80 1010.0
20260505061949 57 261 0.9 3.5 0.00 0.00 0.00 84 1010.1
20260505060451 55 219 0.9 2.6 0.00 0.00 0.00 85 1010.3
20260505054946 54 243 0.0 2.6 0.00 0.00 0.00 89 1010.3
20260505053448 51 175 0.9 2.6 0.00 0.00 0.00 92 1010.3
20260505051945 48 174 0.0 2.6 0.00 0.00 0.00 91 1010.4
20260505050446 47 285 0.0 0.0 0.00 0.00 0.00 89 1010.5
20260505040445 47 286 0.0 0.0 0.00 0.00 0.00 86 1010.4
20260505033446 48 285 0.0 0.0 0.00 0.00 0.00 86 1010.4
20260505031942 49 285 0.0 0.9 0.00 0.00 0.00 86 1010.6
20260505030445 49 286 0.0 0.9 0.00 0.00 0.00 84 1010.6
20260505024942 49 285 0.0 0.0 0.00 0.00 0.00 83 1010.7
20260505023444 49 285 0.0 0.0 0.00 0.00 0.00 82 1010.9
20260505014941 51 285 0.0 0.0 0.00 0.00 0.00 81 1011.2
20260505013442 52 285 0.0 0.0 0.00 0.00 0.00 81 1011.3
20260505011934 53 285 0.0 0.0 0.00 0.00 0.00 79 1011.3
20260505010435 54 286 0.0 0.0 0.00 0.00 0.00 79 1011.4
20260505004936 55 285 0.0 0.0 0.00 0.00 0.00 78 1011.5
20260505003436 55 285 0.0 0.9 0.00 0.00 0.00 78 1011.5
20260505001935 56 286 0.0 1.7 0.00 0.00 0.00 76 1011.6
20260505000437 57 178 0.0 0.0 0.00 0.00 0.00 75 1011.7
20260504234937 58 178 0.0 1.7 0.00 0.00 0.00 75 1011.6
20260504233436 58 178 0.0 0.9 0.00 0.00 0.00 75 1011.9
20260504231937 58 178 0.0 2.6 0.00 0.00 0.00 74 1011.9